,,PA_Meas_PMT16A,,PR_Meas_QMR101_102,,RH_Meas_QMH101,,SR_Meas_QMS101,,TA_Meas_QMH101,,GenWind,,GenWind,
time,status,PA,status,PR,status,RH,status,SR,status,TA,status,DirAvg,status,SpdAvg,
2012-07-04, 00:00:04,VALID,916.046,VALID,0,VALID,93.768,VALID,0,VALID,19.5888,VALID,345,VALID,1.47148,
2012-07-04, 00:01:04,VALID,916.06,VALID,0,VALID,93.7451,VALID,0,VALID,19.5888,VALID,339,VALID,1.30156,
2012-07-04, 00:02:04,VALID,916.115,VALID,0,VALID,93.8214,VALID,0,VALID,19.5888,VALID,339,VALID,0.781641,
2012-07-04, 00:03:04,VALID,916.144,VALID,0,VALID,93.7909,VALID,0,VALID,19.5888,VALID,339,VALID,0.577344,
2012-07-04, 00:04:04,VALID,916.072,VALID,0,VALID,93.5698,VALID,0,VALID,19.6098,VALID,281,VALID,0.675781,
2012-07-04, 00:05:04,VALID,916.104,VALID,0,VALID,93.6842,VALID,0,VALID,19.6683,VALID,3,VALID,1.58086,
2012-07-04, 00:06:04,VALID,916.079,VALID,0,VALID,93.6155,VALID,0,VALID,19.6473,VALID,39,VALID,1.29102,
2012-07-04, 00:07:04,VALID,916.066,VALID,0,VALID,93.5546,VALID,0,VALID,19.6278,VALID,10,VALID,2.32305,
2012-07-04, 00:08:04,VALID,916.067,VALID,0,VALID,93.8061,VALID,0,VALID,19.6278,VALID,21,VALID,1.30117,
2012-07-04, 00:09:04,VALID,916.066,VALID,0,VALID,93.9129,VALID,0,VALID,19.6473,VALID,9,VALID,1.2707,
2012-07-04, 00:10:04,VALID,916.053,VALID,0,VALID,93.9281,VALID,0,VALID,19.6668,VALID,21,VALID,1.05078,
2012-07-04, 00:11:04,VALID,916.003,VALID,0,VALID,93.7604,VALID,0,VALID,19.6668,VALID,8,VALID,0.702344,
2012-07-04, 00:12:04,VALID,916.048,VALID,0,VALID,93.7604,VALID,0,VALID,19.6473,VALID,8,VALID,0,
2012-07-04, 00:13:04,VALID,916.058,VALID,0,VALID,93.8214,VALID,0,VALID,19.6473,VALID,8,VALID,0,
2012-07-04, 00:14:04,VALID,916.08,VALID,0,VALID,93.9052,VALID,0,VALID,19.6473,VALID,9,VALID,0,
2012-07-04, 00:15:04,VALID,916.048,VALID,0,VALID,93.951,VALID,0,VALID,19.6878,VALID,8,VALID,0,
2012-07-04, 00:16:04,VALID,916.042,VALID,0,VALID,94.073,VALID,0,VALID,19.6668,VALID,22,VALID,0,
2012-07-04, 00:17:04,VALID,916.034,VALID,0,VALID,94.0653,VALID,0,VALID,19.7058,VALID,47,VALID,0,
2012-07-04, 00:18:04,VALID,916.015,VALID,0,VALID,94.0425,VALID,0,VALID,19.6668,VALID,29,VALID,0,
2012-07-04, 00:19:04,VALID,916.032,VALID,0,VALID,94.0425,VALID,0,VALID,19.6473,VALID,350,VALID,0,
2012-07-04, 00:20:04,VALID,916.018,VALID,0,VALID,94.1568,VALID,0,VALID,19.6278,VALID,354,VALID,0,
2012-07-04, 00:21:04,VALID,916.017,VALID,0,VALID,94.2788,VALID,0,VALID,19.6278,VALID,15,VALID,0,
2012-07-04, 00:22:04,VALID,916.022,VALID,0,VALID,94.3093,VALID,0,VALID,19.6278,VALID,341,VALID,0,
2012-07-04, 00:23:04,VALID,915.994,VALID,0,VALID,94.2864,VALID,0,VALID,19.6293,VALID,334,VALID,0,
2012-07-04, 00:24:04,VALID,916.009,VALID,0,VALID,94.2254,VALID,0,VALID,19.6083,VALID,24,VALID,0.0183594,
2012-07-04, 00:25:04,VALID,915.982,VALID,0,VALID,94.2407,VALID,0,VALID,19.6083,VALID,16,VALID,0.0121094,
2012-07-04, 00:26:04,VALID,915.973,VALID,0,VALID,94.1949,VALID,0,VALID,19.6083,VALID,13,VALID,0,
2012-07-04, 00:27:04,VALID,915.938,VALID,0,VALID,94.2483,VALID,0,VALID,19.5888,VALID,14,VALID,0,
2012-07-04, 00:28:04,VALID,915.884,VALID,0,VALID,94.2864,VALID,0,VALID,19.6098,VALID,352,VALID,0,
2012-07-04, 00:29:04,VALID,915.892,VALID,0,VALID,94.4236,VALID,0,VALID,19.5903,VALID,350,VALID,0,
2012-07-04, 00:30:04,VALID,915.883,VALID,0,VALID,94.4236,VALID,0,VALID,19.5498,VALID,349,VALID,0,
2012-07-04, 00:31:04,VALID,915.896,VALID,0,VALID,94.4846,VALID,0,VALID,19.5498,VALID,350,VALID,0,
2012-07-04, 00:32:04,VALID,915.881,VALID,0,VALID,94.6905,VALID,0,VALID,19.5512,VALID,350,VALID,0,
2012-07-04, 00:33:04,VALID,915.856,VALID,0,VALID,94.7133,VALID,0,VALID,19.5303,VALID,350,VALID,0,
2012-07-04, 00:34:04,VALID,915.891,VALID,0,VALID,94.66,VALID,0,VALID,19.5303,VALID,350,VALID,0,
2012-07-04, 00:35:04,VALID,915.886,VALID,0,VALID,94.7057,VALID,0,VALID,19.5108,VALID,350,VALID,0,
2012-07-04, 00:36:04,VALID,915.872,VALID,0,VALID,94.7743,VALID,0,VALID,19.4913,VALID,350,VALID,0,
2012-07-04, 00:37:04,VALID,915.869,VALID,0,VALID,94.9192,VALID,0,VALID,19.5108,VALID,350,VALID,0,
2012-07-04, 00:38:04,VALID,915.878,VALID,0,VALID,94.9268,VALID,0,VALID,19.5108,VALID,350,VALID,0,
2012-07-04, 00:39:04,VALID,915.854,VALID,0,VALID,94.8734,VALID,0,VALID,19.5108,VALID,31,VALID,0,
2012-07-04, 00:40:04,VALID,915.866,VALID,0,VALID,94.7819,VALID,0,VALID,19.5122,VALID,13,VALID,0,
2012-07-04, 00:41:04,VALID,915.899,VALID,0,VALID,94.7819,VALID,0,VALID,19.4913,VALID,31,VALID,0,
2012-07-04, 00:42:04,VALID,915.913,VALID,0,VALID,94.8353,VALID,0,VALID,19.5108,VALID,25,VALID,0,
2012-07-04, 00:43:04,VALID,915.961,VALID,0,VALID,94.6523,VALID,0,VALID,19.4913,VALID,325,VALID,0.00429688,
2012-07-04, 00:44:04,VALID,915.959,VALID,0,VALID,94.5913,VALID,0,VALID,19.4913,VALID,318,VALID,0,
2012-07-04, 00:45:04,VALID,915.966,VALID,0,VALID,94.599,VALID,0,VALID,19.5108,VALID,318,VALID,0,
2012-07-04, 00:46:04,VALID,915.931,VALID,0,VALID,94.5913,VALID,0,VALID,19.5303,VALID,318,VALID,0,
2012-07-04, 00:47:04,VALID,915.936,VALID,0,VALID,94.5532,VALID,0,VALID,19.5498,VALID,318,VALID,0,
2012-07-04, 00:48:05,VALID,915.942,VALID,0,VALID,94.5609,VALID,0,VALID,19.6098,VALID,318,VALID,0,
2012-07-04, 00:49:05,VALID,915.94,VALID,0,VALID,94.6295,VALID,0,VALID,19.6083,VALID,318,VALID,0,
2012-07-04, 00:50:05,VALID,915.925,VALID,0,VALID,94.6295,VALID,0,VALID,19.6473,VALID,318,VALID,0,
2012-07-04, 00:51:05,VALID,915.939,VALID,0,VALID,94.5532,VALID,0,VALID,19.6668,VALID,20,VALID,0,
2012-07-04, 00:52:05,VALID,915.885,VALID,0,VALID,94.3321,VALID,0,VALID,19.6473,VALID,18,VALID,0,
2012-07-04, 00:53:05,VALID,915.876,VALID,0,VALID,94.2254,VALID,0,VALID,19.6083,VALID,11,VALID,0,
2012-07-04, 00:54:05,VALID,915.867,VALID,0,VALID,94.1339,VALID,0,VALID,19.5888,VALID,355,VALID,0,
2012-07-04, 00:55:05,VALID,915.845,VALID,0,VALID,94.1263,VALID,0,VALID,19.5693,VALID,356,VALID,0,
2012-07-04, 00:56:05,VALID,915.819,VALID,0,VALID,94.1873,VALID,0,VALID,19.5498,VALID,7,VALID,0,
2012-07-04, 00:57:05,VALID,915.799,VALID,0,VALID,94.3017,VALID,0,VALID,19.5303,VALID,19,VALID,0,
2012-07-04, 00:58:05,VALID,915.816,VALID,0,VALID,94.4313,VALID,0,VALID,19.5303,VALID,16,VALID,0,
2012-07-04, 00:59:05,VALID,915.817,VALID,0,VALID,94.4846,VALID,0,VALID,19.5303,VALID,24,VALID,0,
2012-07-04, 01:00:05,VALID,915.803,VALID,0,VALID,94.5532,VALID,0,VALID,19.5303,VALID,26,VALID,0,
2012-07-04, 01:01:05,VALID,915.821,VALID,0,VALID,94.6447,VALID,0,VALID,19.5498,VALID,21,VALID,0,
2012-07-04, 01:02:05,VALID,915.788,VALID,0,VALID,94.599,VALID,0,VALID,19.5498,VALID,14,VALID,0,
2012-07-04, 01:03:05,VALID,915.801,VALID,0,VALID,94.5151,VALID,0,VALID,19.5498,VALID,2,VALID,0,
2012-07-04, 01:04:05,VALID,915.78,VALID,0,VALID,94.4846,VALID,0,VALID,19.5108,VALID,323,VALID,0,
2012-07-04, 01:05:05,VALID,915.804,VALID,0,VALID,94.5456,VALID,0,VALID,19.4913,VALID,13,VALID,0,
2012-07-04, 01:06:05,VALID,915.813,VALID,0,VALID,94.6905,VALID,0,VALID,19.4913,VALID,23,VALID,0,
2012-07-04, 01:07:05,VALID,915.813,VALID,0,VALID,94.7438,VALID,0,VALID,19.4718,VALID,15,VALID,0,
2012-07-04, 01:08:05,VALID,915.825,VALID,0,VALID,94.8429,VALID,0,VALID,19.4523,VALID,14,VALID,0,
2012-07-04, 01:09:05,VALID,915.87,VALID,0,VALID,94.942,VALID,0,VALID,19.4523,VALID,19,VALID,0,
2012-07-04, 01:10:05,VALID,915.853,VALID,0,VALID,95.0106,VALID,0,VALID,19.4327,VALID,5,VALID,0,
2012-07-04, 01:11:05,VALID,915.848,VALID,0,VALID,95.0792,VALID,0,VALID,19.4132,VALID,5,VALID,0,
2012-07-04, 01:12:05,VALID,915.834,VALID,0,VALID,95.1174,VALID,0,VALID,19.4132,VALID,5,VALID,0,
2012-07-04, 01:13:05,VALID,915.831,VALID,0,VALID,95.125,VALID,0,VALID,19.4147,VALID,5,VALID,0,
2012-07-04, 01:14:05,VALID,915.833,VALID,0,VALID,95.1555,VALID,0,VALID,19.3937,VALID,351,VALID,0,
2012-07-04, 01:15:05,VALID,915.84,VALID,0,VALID,95.0716,VALID,0,VALID,19.4147,VALID,333,VALID,0,
2012-07-04, 01:16:05,VALID,915.837,VALID,0,VALID,95.0411,VALID,0,VALID,19.4327,VALID,259,VALID,0,
2012-07-04, 01:17:05,VALID,915.819,VALID,0,VALID,95.0945,VALID,0,VALID,19.4523,VALID,259,VALID,0,
2012-07-04, 01:18:05,VALID,915.84,VALID,0,VALID,95.0564,VALID,0,VALID,19.4927,VALID,259,VALID,0,
2012-07-04, 01:19:05,VALID,915.814,VALID,0,VALID,94.9573,VALID,0,VALID,19.4913,VALID,259,VALID,0,
2012-07-04, 01:20:05,VALID,915.81,VALID,0,VALID,94.9268,VALID,0,VALID,19.5122,VALID,259,VALID,0,
2012-07-04, 01:21:05,VALID,915.791,VALID,0,VALID,94.9649,VALID,0,VALID,19.4913,VALID,259,VALID,0,
2012-07-04, 01:22:05,VALID,915.76,VALID,0,VALID,94.9878,VALID,0,VALID,19.5122,VALID,259,VALID,0,
2012-07-04, 01:23:05,VALID,915.775,VALID,0,VALID,94.9649,VALID,0,VALID,19.5108,VALID,14,VALID,0,
2012-07-04, 01:24:05,VALID,915.725,VALID,0,VALID,94.9954,VALID,0,VALID,19.5303,VALID,14,VALID,0,
2012-07-04, 01:25:05,VALID,915.704,VALID,0,VALID,95.0259,VALID,0.107441,VALID,19.5483,VALID,14,VALID,0,
2012-07-04, 01:26:05,VALID,915.697,VALID,0,VALID,94.8582,VALID,0,VALID,19.5678,VALID,14,VALID,0,
2012-07-04, 01:27:05,VALID,915.709,VALID,0,VALID,94.7591,VALID,0,VALID,19.5693,VALID,14,VALID,0,
2012-07-04, 01:28:05,VALID,915.696,VALID,0,VALID,94.7286,VALID,0.107441,VALID,19.5483,VALID,14,VALID,0,
2012-07-04, 01:29:05,VALID,915.655,VALID,0,VALID,94.7133,VALID,0,VALID,19.5483,VALID,14,VALID,0,
2012-07-04, 01:30:05,VALID,915.648,VALID,0,VALID,94.7514,VALID,0,VALID,19.5693,VALID,14,VALID,0,
2012-07-04, 01:31:05,VALID,915.636,VALID,0,VALID,94.7819,VALID,0,VALID,19.5888,VALID,14,VALID,0,
2012-07-04, 01:32:05,VALID,915.634,VALID,0,VALID,94.7591,VALID,0,VALID,19.5888,VALID,14,VALID,0,
2012-07-04, 01:33:05,VALID,915.628,VALID,0,VALID,94.7972,VALID,0,VALID,19.5678,VALID,14,VALID,0,
2012-07-04, 01:34:05,VALID,915.599,VALID,0,VALID,94.8429,VALID,0,VALID,19.5678,VALID,14,VALID,0,
2012-07-04, 01:35:05,VALID,915.591,VALID,0,VALID,94.8353,VALID,0,VALID,19.5888,VALID,14,VALID,0,
2012-07-04, 01:36:05,VALID,915.54,VALID,0,VALID,94.8277,VALID,0,VALID,19.5483,VALID,14,VALID,0,
2012-07-04, 01:37:05,VALID,915.528,VALID,0,VALID,94.8582,VALID,0.107441,VALID,19.5483,VALID,14,VALID,0,
2012-07-04, 01:38:05,VALID,915.522,VALID,0,VALID,94.9192,VALID,0,VALID,19.5498,VALID,14,VALID,0,
2012-07-04, 01:39:05,VALID,915.507,VALID,0,VALID,94.9725,VALID,0,VALID,19.5498,VALID,14,VALID,0,
2012-07-04, 01:40:05,VALID,915.494,VALID,0,VALID,95.0335,VALID,0,VALID,19.5288,VALID,14,VALID,0,
2012-07-04, 01:41:05,VALID,915.483,VALID,0,VALID,95.0869,VALID,0,VALID,19.5888,VALID,14,VALID,0,
2012-07-04, 01:42:05,VALID,915.453,VALID,0,VALID,95.0106,VALID,0,VALID,19.5693,VALID,14,VALID,0,
2012-07-04, 01:43:05,VALID,915.447,VALID,0,VALID,95.0183,VALID,0,VALID,19.5693,VALID,14,VALID,0,
2012-07-04, 01:44:05,VALID,915.431,VALID,0,VALID,94.9039,VALID,0,VALID,19.5498,VALID,14,VALID,0,
2012-07-04, 01:45:05,VALID,915.404,VALID,0,VALID,94.942,VALID,0,VALID,19.5303,VALID,14,VALID,0,
2012-07-04, 01:46:05,VALID,915.384,VALID,0,VALID,95.0488,VALID,0,VALID,19.5498,VALID,14,VALID,0,
2012-07-04, 01:47:05,VALID,915.36,VALID,0,VALID,95.064,VALID,0,VALID,19.5303,VALID,14,VALID,0,
2012-07-04, 01:48:05,VALID,915.393,VALID,0,VALID,95.1097,VALID,0,VALID,19.5498,VALID,14,VALID,0,
2012-07-04, 01:49:05,VALID,915.346,VALID,0,VALID,95.0945,VALID,0,VALID,19.5498,VALID,14,VALID,0,
2012-07-04, 01:50:05,VALID,915.354,VALID,0,VALID,95.0716,VALID,0,VALID,19.5303,VALID,14,VALID,0,
2012-07-04, 01:51:05,VALID,915.339,VALID,0,VALID,95.0335,VALID,0,VALID,19.5288,VALID,14,VALID,0,
2012-07-04, 01:52:05,VALID,915.308,VALID,0,VALID,95.1326,VALID,0,VALID,19.4898,VALID,14,VALID,0,
2012-07-04, 01:53:05,VALID,915.312,VALID,0,VALID,95.2165,VALID,0.107441,VALID,19.5288,VALID,14,VALID,0,
2012-07-04, 01:54:05,VALID,915.316,VALID,0,VALID,95.2927,VALID,0,VALID,19.5483,VALID,14,VALID,0,
2012-07-04, 01:55:05,VALID,915.304,VALID,0,VALID,95.1783,VALID,0,VALID,19.5512,VALID,14,VALID,0,
2012-07-04, 01:56:05,VALID,915.3,VALID,0,VALID,95.2165,VALID,0,VALID,19.5317,VALID,14,VALID,0,
2012-07-04, 01:57:05,VALID,915.251,VALID,0,VALID,95.2241,VALID,0,VALID,19.5108,VALID,14,VALID,0,
2012-07-04, 01:58:05,VALID,915.262,VALID,0,VALID,95.3613,VALID,0,VALID,19.5108,VALID,14,VALID,0,
2012-07-04, 01:59:05,VALID,915.266,VALID,0,VALID,95.2927,VALID,0,VALID,19.5512,VALID,14,VALID,0,
2012-07-04, 02:00:05,VALID,915.264,VALID,0,VALID,95.2546,VALID,0,VALID,19.5512,VALID,14,VALID,0,
2012-07-04, 02:01:05,VALID,915.223,VALID,0,VALID,95.3461,VALID,0,VALID,19.5303,VALID,14,VALID,0,
2012-07-04, 02:02:05,VALID,915.272,VALID,0,VALID,95.2851,VALID,0,VALID,19.5708,VALID,14,VALID,0,
2012-07-04, 02:03:05,VALID,915.255,VALID,0,VALID,95.1936,VALID,0,VALID,19.5303,VALID,3,VALID,0,
2012-07-04, 02:04:05,VALID,915.268,VALID,0,VALID,95.1631,VALID,0,VALID,19.5108,VALID,3,VALID,0,
2012-07-04, 02:05:05,VALID,915.257,VALID,0,VALID,95.2012,VALID,0,VALID,19.5108,VALID,3,VALID,0,
2012-07-04, 02:06:05,VALID,915.266,VALID,0,VALID,95.2241,VALID,0,VALID,19.4913,VALID,3,VALID,0,
2012-07-04, 02:07:05,VALID,915.258,VALID,0,VALID,95.3232,VALID,0,VALID,19.5108,VALID,3,VALID,0,
2012-07-04, 02:08:05,VALID,915.274,VALID,0,VALID,95.4071,VALID,0,VALID,19.5317,VALID,3,VALID,0,
2012-07-04, 02:09:05,VALID,915.23,VALID,0,VALID,95.4299,VALID,0,VALID,19.5108,VALID,3,VALID,0,
2012-07-04, 02:10:05,VALID,915.234,VALID,0,VALID,95.4299,VALID,0,VALID,19.5303,VALID,3,VALID,0,
2012-07-04, 02:11:05,VALID,915.22,VALID,0,VALID,95.4909,VALID,0,VALID,19.5498,VALID,3,VALID,0,
2012-07-04, 02:12:05,VALID,915.181,VALID,0,VALID,95.3766,VALID,0,VALID,19.5498,VALID,3,VALID,0,
2012-07-04, 02:13:05,VALID,915.19,VALID,0,VALID,95.3232,VALID,0,VALID,19.5693,VALID,3,VALID,0,
2012-07-04, 02:14:05,VALID,915.187,VALID,0,VALID,95.2851,VALID,0,VALID,19.5498,VALID,3,VALID,0,
2012-07-04, 02:15:05,VALID,915.162,VALID,0,VALID,95.2927,VALID,0,VALID,19.5498,VALID,3,VALID,0,
2012-07-04, 02:16:05,VALID,915.161,VALID,0,VALID,95.2165,VALID,0,VALID,19.5498,VALID,3,VALID,0,
2012-07-04, 02:17:05,VALID,915.158,VALID,0,VALID,95.2165,VALID,0,VALID,19.5303,VALID,3,VALID,0,
2012-07-04, 02:18:05,VALID,915.186,VALID,0,VALID,95.3079,VALID,0,VALID,19.5498,VALID,3,VALID,0,
2012-07-04, 02:19:05,VALID,915.18,VALID,0,VALID,95.3308,VALID,0,VALID,19.5498,VALID,3,VALID,0,
2012-07-04, 02:20:05,VALID,915.199,VALID,0,VALID,95.2546,VALID,0,VALID,19.5108,VALID,3,VALID,0,
2012-07-04, 02:21:05,VALID,915.206,VALID,0,VALID,95.2165,VALID,0,VALID,19.4913,VALID,3,VALID,0,
2012-07-04, 02:22:05,VALID,915.239,VALID,0,VALID,95.2088,VALID,0,VALID,19.5108,VALID,3,VALID,0,
2012-07-04, 02:23:05,VALID,915.222,VALID,0,VALID,95.2393,VALID,0,VALID,19.5122,VALID,3,VALID,0,
2012-07-04, 02:24:05,VALID,915.198,VALID,0,VALID,95.2241,VALID,0,VALID,19.4913,VALID,3,VALID,0,
2012-07-04, 02:25:05,VALID,915.168,VALID,0,VALID,95.2851,VALID,0,VALID,19.4913,VALID,3,VALID,0,
2012-07-04, 02:26:05,VALID,915.156,VALID,0,VALID,95.3156,VALID,0,VALID,19.5108,VALID,3,VALID,0,
2012-07-04, 02:27:05,VALID,915.123,VALID,0,VALID,95.3308,VALID,0,VALID,19.5108,VALID,3,VALID,0,
2012-07-04, 02:28:05,VALID,915.103,VALID,0,VALID,95.3766,VALID,0,VALID,19.5108,VALID,3,VALID,0,
2012-07-04, 02:29:05,VALID,915.107,VALID,0,VALID,95.3613,VALID,0,VALID,19.5108,VALID,3,VALID,0,
2012-07-04, 02:30:05,VALID,915.046,VALID,0,VALID,95.3918,VALID,0,VALID,19.5108,VALID,3,VALID,0,
2012-07-04, 02:31:05,VALID,915.044,VALID,0,VALID,95.3918,VALID,0,VALID,19.5108,VALID,3,VALID,0,
2012-07-04, 02:32:05,VALID,915.029,VALID,0,VALID,95.3766,VALID,0,VALID,19.5108,VALID,3,VALID,0,
2012-07-04, 02:33:05,VALID,915.023,VALID,0,VALID,95.3079,VALID,0,VALID,19.4718,VALID,3,VALID,0,
2012-07-04, 02:34:05,VALID,915.019,VALID,0,VALID,95.3461,VALID,0,VALID,19.4718,VALID,3,VALID,0,
2012-07-04, 02:35:05,VALID,915.028,VALID,0,VALID,95.3613,VALID,0,VALID,19.4718,VALID,3,VALID,0,
2012-07-04, 02:36:05,VALID,915.001,VALID,0,VALID,95.3842,VALID,0,VALID,19.4718,VALID,3,VALID,0,
2012-07-04, 02:37:05,VALID,915.011,VALID,0,VALID,95.3613,VALID,0,VALID,19.4718,VALID,3,VALID,0,
2012-07-04, 02:38:05,VALID,914.974,VALID,0,VALID,95.3842,VALID,0,VALID,19.4718,VALID,3,VALID,0,
2012-07-04, 02:39:05,VALID,915.002,VALID,0,VALID,95.3918,VALID,0,VALID,19.4718,VALID,3,VALID,0,
2012-07-04, 02:40:05,VALID,914.949,VALID,0,VALID,95.4071,VALID,0,VALID,19.4718,VALID,3,VALID,0,
2012-07-04, 02:41:05,VALID,914.913,VALID,0,VALID,95.3994,VALID,0,VALID,19.4718,VALID,3,VALID,0,
2012-07-04, 02:42:05,VALID,914.936,VALID,0,VALID,95.3918,VALID,0,VALID,19.4523,VALID,3,VALID,0,
2012-07-04, 02:43:05,VALID,914.906,VALID,0,VALID,95.4757,VALID,0,VALID,19.4537,VALID,3,VALID,0,
2012-07-04, 02:44:05,VALID,914.909,VALID,0,VALID,95.5367,VALID,0,VALID,19.4327,VALID,3,VALID,0,
2012-07-04, 02:45:05,VALID,914.85,VALID,0,VALID,95.5214,VALID,0,VALID,19.4327,VALID,3,VALID,0,
2012-07-04, 02:46:05,VALID,914.845,VALID,0,VALID,95.5138,VALID,0,VALID,19.4132,VALID,3,VALID,0,
2012-07-04, 02:47:05,VALID,914.798,VALID,0,VALID,95.5443,VALID,0,VALID,19.3937,VALID,3,VALID,0,
2012-07-04, 02:48:05,VALID,914.802,VALID,0,VALID,95.5519,VALID,0,VALID,19.3952,VALID,3,VALID,0,
2012-07-04, 02:49:05,VALID,914.795,VALID,0,VALID,95.5976,VALID,0,VALID,19.3157,VALID,3,VALID,0,
2012-07-04, 02:50:05,VALID,914.761,VALID,0,VALID,95.651,VALID,0,VALID,19.2962,VALID,38,VALID,0,
2012-07-04, 02:51:05,VALID,914.744,VALID,0,VALID,95.7196,VALID,0,VALID,19.2572,VALID,38,VALID,0,
2012-07-04, 02:52:05,VALID,914.762,VALID,0,VALID,95.7577,VALID,0,VALID,19.2377,VALID,38,VALID,0,
2012-07-04, 02:53:05,VALID,914.707,VALID,0,VALID,95.834,VALID,0,VALID,19.2182,VALID,38,VALID,0,
2012-07-04, 02:54:05,VALID,914.721,VALID,0,VALID,95.8645,VALID,0,VALID,19.2182,VALID,38,VALID,0,
2012-07-04, 02:55:05,VALID,914.714,VALID,0,VALID,95.9178,VALID,0,VALID,19.2182,VALID,38,VALID,0,
2012-07-04, 02:56:05,VALID,914.683,VALID,0,VALID,95.9407,VALID,0.107441,VALID,19.1778,VALID,38,VALID,0,
2012-07-04, 02:57:05,VALID,914.683,VALID,0,VALID,95.9941,VALID,0.107441,VALID,19.1583,VALID,38,VALID,0,
2012-07-04, 02:58:05,VALID,914.655,VALID,0,VALID,96.0474,VALID,0,VALID,19.1388,VALID,38,VALID,0,
2012-07-04, 02:59:05,VALID,914.657,VALID,0,VALID,96.0932,VALID,0.107441,VALID,19.1597,VALID,38,VALID,0,
2012-07-04, 03:00:05,VALID,914.643,VALID,0,VALID,96.1465,VALID,0,VALID,19.1388,VALID,38,VALID,0,
2012-07-04, 03:01:05,VALID,914.612,VALID,0,VALID,96.1465,VALID,0.107441,VALID,19.1388,VALID,38,VALID,0,
2012-07-04, 03:02:05,VALID,914.611,VALID,0,VALID,96.1236,VALID,0,VALID,19.1193,VALID,38,VALID,0,
2012-07-04, 03:03:05,VALID,914.585,VALID,0,VALID,96.1313,VALID,0.107441,VALID,19.1193,VALID,38,VALID,0,
2012-07-04, 03:04:05,VALID,914.59,VALID,0,VALID,96.1313,VALID,0,VALID,19.1207,VALID,38,VALID,0,
2012-07-04, 03:05:05,VALID,914.548,VALID,0,VALID,96.1694,VALID,0.107441,VALID,19.0998,VALID,38,VALID,0,
2012-07-04, 03:06:05,VALID,914.515,VALID,0,VALID,96.1846,VALID,0.107441,VALID,19.1207,VALID,38,VALID,0,
2012-07-04, 03:07:05,VALID,914.505,VALID,0,VALID,96.177,VALID,0,VALID,19.1012,VALID,38,VALID,0,
2012-07-04, 03:08:05,VALID,914.478,VALID,0,VALID,96.1846,VALID,0,VALID,19.0803,VALID,38,VALID,0,
2012-07-04, 03:09:05,VALID,914.496,VALID,0,VALID,96.2151,VALID,0,VALID,19.1012,VALID,38,VALID,0,
2012-07-04, 03:10:05,VALID,914.48,VALID,0,VALID,96.2533,VALID,0,VALID,19.0608,VALID,38,VALID,0,
2012-07-04, 03:11:05,VALID,914.455,VALID,0,VALID,96.2837,VALID,0.107441,VALID,19.0608,VALID,38,VALID,0,
2012-07-04, 03:12:05,VALID,914.458,VALID,0,VALID,96.299,VALID,0,VALID,19.0413,VALID,38,VALID,0,
2012-07-04, 03:13:05,VALID,914.43,VALID,0,VALID,96.3295,VALID,0,VALID,19.0427,VALID,38,VALID,0,
2012-07-04, 03:14:05,VALID,914.401,VALID,0,VALID,96.3752,VALID,0.107441,VALID,19.0023,VALID,38,VALID,0,
2012-07-04, 03:15:05,VALID,914.392,VALID,0,VALID,96.4133,VALID,0,VALID,19.0232,VALID,38,VALID,0,
2012-07-04, 03:16:05,VALID,914.38,VALID,0,VALID,96.4362,VALID,0.107441,VALID,19.0232,VALID,38,VALID,0,
2012-07-04, 03:17:05,VALID,914.359,VALID,0,VALID,96.4896,VALID,0.107441,VALID,18.9828,VALID,38,VALID,0,
2012-07-04, 03:18:05,VALID,914.336,VALID,0,VALID,96.5048,VALID,0,VALID,18.9647,VALID,38,VALID,0,
2012-07-04, 03:19:05,VALID,914.343,VALID,0,VALID,96.5429,VALID,0,VALID,18.9647,VALID,38,VALID,0,
2012-07-04, 03:20:05,VALID,914.304,VALID,0,VALID,96.5811,VALID,0,VALID,18.9438,VALID,38,VALID,0,
2012-07-04, 03:21:05,VALID,914.289,VALID,0,VALID,96.6115,VALID,0,VALID,18.9243,VALID,38,VALID,0,
2012-07-04, 03:22:05,VALID,914.285,VALID,0,VALID,96.642,VALID,0,VALID,18.9243,VALID,38,VALID,0,
2012-07-04, 03:23:05,VALID,914.298,VALID,0,VALID,96.6802,VALID,0,VALID,18.9452,VALID,38,VALID,0,
2012-07-04, 03:24:05,VALID,914.251,VALID,0,VALID,96.7488,VALID,0.107441,VALID,18.9452,VALID,38,VALID,0,
2012-07-04, 03:25:05,VALID,914.291,VALID,0,VALID,96.7945,VALID,0,VALID,18.9452,VALID,38,VALID,0,
2012-07-04, 03:26:05,VALID,914.243,VALID,0,VALID,96.7793,VALID,0.107441,VALID,18.9452,VALID,38,VALID,0,
2012-07-04, 03:27:05,VALID,914.232,VALID,0,VALID,96.7564,VALID,0.107441,VALID,18.9438,VALID,39,VALID,0,
2012-07-04, 03:28:05,VALID,914.21,VALID,0,VALID,96.764,VALID,0,VALID,18.9438,VALID,38,VALID,0,
2012-07-04, 03:29:05,VALID,914.226,VALID,0,VALID,96.7335,VALID,0,VALID,18.9438,VALID,38,VALID,0,
2012-07-04, 03:30:05,VALID,914.189,VALID,0,VALID,96.7183,VALID,0,VALID,18.9842,VALID,39,VALID,0,
2012-07-04, 03:31:05,VALID,914.197,VALID,0,VALID,96.6954,VALID,0,VALID,18.9633,VALID,39,VALID,0,
2012-07-04, 03:32:04,VALID,914.2,VALID,0,VALID,96.6725,VALID,0,VALID,18.9842,VALID,39,VALID,0,
2012-07-04, 03:33:04,VALID,914.187,VALID,0,VALID,96.6649,VALID,0.107441,VALID,18.9842,VALID,39,VALID,0,
2012-07-04, 03:34:04,VALID,914.181,VALID,0,VALID,96.6802,VALID,0,VALID,18.9647,VALID,110,VALID,0,
2012-07-04, 03:35:04,VALID,914.215,VALID,0,VALID,96.6878,VALID,0,VALID,18.9647,VALID,110,VALID,0,
2012-07-04, 03:36:04,VALID,914.149,VALID,0,VALID,96.6954,VALID,0,VALID,18.9662,VALID,123,VALID,0,
2012-07-04, 03:37:04,VALID,914.147,VALID,0,VALID,96.7107,VALID,0,VALID,18.9662,VALID,125,VALID,0,
2012-07-04, 03:38:04,VALID,914.136,VALID,0,VALID,96.7259,VALID,0,VALID,18.9662,VALID,125,VALID,0,
2012-07-04, 03:39:04,VALID,914.146,VALID,0,VALID,96.7335,VALID,0,VALID,18.9662,VALID,126,VALID,0,
2012-07-04, 03:40:04,VALID,914.163,VALID,0,VALID,96.7411,VALID,0,VALID,18.9647,VALID,133,VALID,0,
2012-07-04, 03:41:04,VALID,914.14,VALID,0,VALID,96.7793,VALID,0,VALID,18.9633,VALID,130,VALID,0,
2012-07-04, 03:42:04,VALID,914.142,VALID,0,VALID,96.7869,VALID,0,VALID,18.9842,VALID,129,VALID,0,
2012-07-04, 03:43:04,VALID,914.142,VALID,0,VALID,96.8098,VALID,0,VALID,18.9842,VALID,129,VALID,0,
2012-07-04, 03:44:04,VALID,914.166,VALID,0,VALID,96.8021,VALID,0.107441,VALID,18.9633,VALID,124,VALID,0,
2012-07-04, 03:45:04,VALID,914.168,VALID,0,VALID,96.8479,VALID,0.107441,VALID,18.9842,VALID,123,VALID,0,
2012-07-04, 03:46:04,VALID,914.151,VALID,0,VALID,96.8479,VALID,0.107441,VALID,18.9633,VALID,123,VALID,0,
2012-07-04, 03:47:04,VALID,914.175,VALID,0,VALID,96.8555,VALID,0,VALID,18.9842,VALID,123,VALID,0,
2012-07-04, 03:48:04,VALID,914.187,VALID,0,VALID,96.8784,VALID,0,VALID,18.9633,VALID,123,VALID,0,
2012-07-04, 03:49:04,VALID,914.195,VALID,0,VALID,96.8707,VALID,0,VALID,18.9842,VALID,123,VALID,0,
2012-07-04, 03:50:04,VALID,914.202,VALID,0,VALID,96.8707,VALID,0,VALID,18.9633,VALID,123,VALID,0,
2012-07-04, 03:51:04,VALID,914.224,VALID,0,VALID,96.886,VALID,0,VALID,18.9842,VALID,123,VALID,0,
2012-07-04, 03:52:04,VALID,914.22,VALID,0,VALID,96.8936,VALID,0,VALID,18.9842,VALID,123,VALID,0,
2012-07-04, 03:53:04,VALID,914.205,VALID,0,VALID,96.9012,VALID,0,VALID,18.9842,VALID,123,VALID,0,
2012-07-04, 03:54:04,VALID,914.192,VALID,0,VALID,96.9012,VALID,0,VALID,19.0037,VALID,123,VALID,0,
2012-07-04, 03:55:04,VALID,914.176,VALID,0,VALID,96.8936,VALID,0,VALID,19.0037,VALID,123,VALID,0,
2012-07-04, 03:56:04,VALID,914.212,VALID,0,VALID,96.9241,VALID,0.107441,VALID,19.0037,VALID,123,VALID,0,
2012-07-04, 03:57:04,VALID,914.198,VALID,0,VALID,96.886,VALID,0,VALID,19.0037,VALID,123,VALID,0,
2012-07-04, 03:58:04,VALID,914.167,VALID,0,VALID,96.8479,VALID,0,VALID,19.0232,VALID,123,VALID,0,
2012-07-04, 03:59:04,VALID,914.171,VALID,0,VALID,96.8631,VALID,0,VALID,19.0232,VALID,123,VALID,0,